Погода в Берфорде

Великобритания     51°48′28″N   1°38′10″W
темп.,
°C
ветер,
м/с
пор.,
м/с
влажн.,
%
обл.,
%
осадки,
мм/ч
давл.,
гПа
погр.,
м
16 мая, вс
вс1601:00+5юз359757 0.3 99983
04:00+4ююз3497100 0.0 99870
07:00+6ююз3796100 0.0 998209
10:00+9ююз3589100 0.0 998450
13:00+10ююз468997 0.9 997612
16:00+12ююз568473 1.8 9961047
19:00+10ююв2292100 2.2 995244
22:00+8сз2293100 0.2 99737
17 мая, пн
пн1701:00+7зсз349568 0.3 99967
04:00+7зсз3694100 0.0 1001128
07:00+9з259385 0.0 1003193
10:00+12зсз348423 0.6 1004566
13:00+14зсз457531 2.0 10061214
16:00+13зсз5681100 2.5 1006967
19:00+11сз5890100 5.1 1008506
22:00+7зсз379483 0.3 1010133
18 мая, вт
вт1801:00+6зсз3793100 0.3 1012141
04:00+5з349397 0.0 101264
07:00+7з3993100 0.0 1014346
10:00+11зсз57700 0.0 10151027
13:00+13з686633 0.4 10151693
16:00+12зюз677856 1.0 10161187
19:00+11з588838 2.1 1016583
22:00+6з36955 0.3 1018107
19 мая, ср
ср1901:00+5зюз33963 0.3 101850
04:00+5зюз229612 0.0 101825
07:00+7зюз23935 0.0 1019109
10:00+12зсз3579100 0.3 1019667
13:00+13зсз467353 1.4 10191281
16:00+13зсз576767 1.3 10191499
19:00+12зсз58771 1.8 1020551
22:00+6з36910 0.0 102185
20 мая, чт
чт2001:00+5з3394100 0.0 102152
04:00+5зюз3697100 0.0 1021102
07:00+7юз3696100 0.0 1021191
10:00+12юз5676100 0.0 1021864
13:00+13юз6767100 0.0 10201290
16:00+12ююз6983100 0.1 1019961
19:00+10ю71482100 0.1 1016739
22:00+11ю81683100 0.0 1013799